�������l�o���
Date,Time,MP-1(��Sv/h),MP-2(��Sv/h),MP-3(��Sv/h),MP-4(��Sv/h),MP-5(��Sv/h),MP-6(��Sv/h),MP-7(��Sv/h),MP-8(��Sv/h),����,����(m/s),���J
2017/04/13,00:00,0.997,1.602,1.093,1.927,1.314,0.537,0.987,0.918,�k,7.0,��
2017/04/13,00:10,0.994,1.603,1.093,1.929,1.312,0.537,0.987,0.917,�k,6.1,��
2017/04/13,00:20,0.994,1.606,1.092,1.928,1.314,0.537,0.987,0.916,�k��,3.1,��
2017/04/13,00:30,0.993,1.607,1.093,1.930,1.314,0.536,0.986,0.918,�k�k��,3.0,��
2017/04/13,00:40,0.995,1.604,1.089,1.928,1.314,0.538,0.988,0.916,�k,5.3,��
2017/04/13,00:50,0.994,1.605,1.091,1.926,1.314,0.536,0.987,0.916,�k�k��,6.2,��
2017/04/13,01:00,0.995,1.605,1.091,1.927,1.313,0.537,0.986,0.918,�k�k��,5.1,��
2017/04/13,01:10,0.995,1.603,1.092,1.925,1.311,0.538,0.985,0.917,�k,4.6,��
2017/04/13,01:20,0.994,1.602,1.091,1.927,1.315,0.536,0.986,0.917,�k�k��,5.3,��
2017/04/13,01:30,0.993,1.602,1.090,1.928,1.312,0.537,0.986,0.916,�k�k��,3.3,��
2017/04/13,01:40,0.994,1.604,1.088,1.928,1.312,0.536,0.986,0.914,�k,1.7,��
2017/04/13,01:50,0.994,1.606,1.089,1.924,1.310,0.537,0.983,0.914,�k�k��,1.7,��
2017/04/13,02:00,0.994,1.604,1.090,1.927,1.315,0.537,0.983,0.915,���k��,1.5,��
2017/04/13,02:10,0.994,1.602,1.092,1.924,1.311,0.536,0.987,0.916,���쐼,1.2,��
2017/04/13,02:20,0.995,1.605,1.090,1.926,1.313,0.537,0.983,0.917,���쐼,2.3,��
2017/04/13,02:30,0.992,1.604,1.088,1.925,1.314,0.535,0.983,0.916,���쐼,2.9,��
2017/04/13,02:40,0.994,1.605,1.090,1.927,1.313,0.535,0.985,0.916,�쐼,3.6,��
2017/04/13,02:50,0.993,1.602,1.089,1.929,1.314,0.539,0.985,0.915,�쐼,3.2,��
2017/04/13,03:00,0.995,1.606,1.092,1.928,1.313,0.537,0.984,0.917,���쐼,3.3,��
2017/04/13,03:10,0.993,1.603,1.090,1.929,1.314,0.537,0.985,0.915,��,3.7,��
2017/04/13,03:20,0.994,1.603,1.092,1.926,1.315,0.537,0.986,0.917,���쐼,3.8,��
2017/04/13,03:30,0.995,1.605,1.091,1.928,1.315,0.537,0.985,0.918,��,3.9,��
2017/04/13,03:40,0.995,1.605,1.089,1.926,1.313,0.536,0.985,0.919,���쐼,4.4,��
2017/04/13,03:50,0.991,1.605,1.089,1.928,1.313,0.536,0.985,0.915,���쐼,3.2,��
2017/04/13,04:00,0.993,1.602,1.091,1.930,1.313,0.537,0.985,0.916,��,2.5,��
2017/04/13,04:10,0.997,1.605,1.090,1.925,1.312,0.536,0.985,0.916,���쐼,1.4,��
2017/04/13,04:20,0.995,1.607,1.088,1.930,1.310,0.537,0.985,0.916,���쐼,1.4,��
2017/04/13,04:30,0.994,1.607,1.089,1.930,1.314,0.535,0.986,0.916,���쐼,1.4,��
2017/04/13,04:40,0.992,1.604,1.089,1.927,1.313,0.536,0.985,0.916,��,3.1,��
2017/04/13,04:50,0.995,1.604,1.090,1.926,1.314,0.535,0.984,0.915,���쐼,3.4,��
2017/04/13,05:00,0.993,1.603,1.090,1.926,1.311,0.538,0.985,0.915,���쐼,3.3,��
2017/04/13,05:10,0.992,1.604,1.091,1.927,1.314,0.535,0.983,0.916,�쐼,2.6,��
2017/04/13,05:20,0.993,1.605,1.090,1.929,1.311,0.535,0.984,0.918,��쐼,2.6,��
2017/04/13,05:30,0.993,1.605,1.090,1.925,1.312,0.536,0.984,0.916,��쐼,1.5,��
2017/04/13,05:40,0.995,1.607,1.091,1.930,1.313,0.537,0.983,0.915,��쐼,1.4,��
2017/04/13,05:50,0.994,1.603,1.089,1.929,1.313,0.538,0.985,0.917,��,1.9,��
2017/04/13,06:00,0.994,1.605,1.092,1.930,1.313,0.536,0.987,0.916,���쐼,1.7,��
2017/04/13,06:10,0.993,1.606,1.093,1.930,1.314,0.536,0.986,0.915,�쐼,1.9,��
2017/04/13,06:20,0.996,1.608,1.091,1.929,1.318,0.538,0.985,0.915,��쐼,3.0,��
2017/04/13,06:30,0.994,1.607,1.092,1.928,1.314,0.536,0.986,0.916,��쐼,2.6,��
2017/04/13,06:40,0.994,1.607,1.093,1.926,1.316,0.536,0.987,0.917,��쐼,3.0,��
2017/04/13,06:50,0.995,1.608,1.093,1.932,1.314,0.538,0.988,0.917,�쐼,3.5,��
2017/04/13,07:00,0.997,1.607,1.092,1.933,1.312,0.537,0.987,0.917,���쐼,5.6,��
2017/04/13,07:10,0.998,1.607,1.093,1.935,1.314,0.538,0.988,0.917,���쐼,6.3,��
2017/04/13,07:20,0.997,1.613,1.094,1.932,1.315,0.538,0.988,0.917,���쐼,5.7,��
2017/04/13,07:30,0.998,1.610,1.096,1.934,1.316,0.539,0.987,0.918,��,5.2,��
2017/04/13,07:40,0.999,1.610,1.094,1.933,1.316,0.538,0.991,0.917,���쐼,6.2,��
2017/04/13,07:50,0.999,1.611,1.095,1.936,1.320,0.538,0.991,0.918,���쐼,6.9,��
2017/04/13,08:00,1.001,1.607,1.094,1.935,1.318,0.538,0.990,0.920,���쐼,6.6,��
2017/04/13,08:10,0.999,1.608,1.098,1.936,1.323,0.537,0.988,0.918,���쐼,5.2,��
2017/04/13,08:20,1.001,1.610,1.097,1.934,1.321,0.537,0.990,0.921,���쐼,6.7,��
2017/04/13,08:30,1.000,1.609,1.096,1.938,1.321,0.538,0.991,0.919,���쐼,7.7,��
2017/04/13,08:40,1.002,1.612,1.099,1.936,1.321,0.537,0.988,0.921,���쐼,7.2,��
2017/04/13,08:50,1.002,1.610,1.097,1.940,1.323,0.538,0.989,0.920,���쐼,7.9,��
2017/04/13,09:00,1.003,1.613,1.097,1.940,1.317,0.539,0.989,0.920,���쐼,7.5,��
2017/04/13,09:10,1.002,1.610,1.098,1.940,1.322,0.538,0.988,0.919,��,9.7,��
2017/04/13,09:20,1.005,1.615,1.100,1.940,1.323,0.539,0.986,0.916,���쐼,7.1,��
2017/04/13,09:30,1.005,1.615,1.101,1.939,1.320,0.540,0.990,0.918,���쐼,8.9,��
2017/04/13,09:40,1.004,1.617,1.099,1.938,1.325,0.540,0.988,0.917,���쐼,8.5,��
2017/04/13,09:50,1.006,1.617,1.101,1.939,1.325,0.540,0.990,0.918,��,9.8,��
2017/04/13,10:00,1.005,1.615,1.101,1.942,1.325,0.542,0.990,0.915,���쐼,12.5,��
2017/04/13,10:10,1.010,1.616,1.106,1.941,1.327,0.539,0.990,0.916,��,10.4,��
2017/04/13,10:20,1.008,1.617,1.109,1.944,1.328,0.541,0.990,0.919,��,12.7,��
2017/04/13,10:30,1.008,1.618,1.108,1.945,1.327,0.541,0.990,0.917,���쐼,13.0,�L
2017/04/13,10:40,1.010,1.618,1.108,1.946,1.329,0.540,0.990,0.917,���쐼,11.7,��
2017/04/13,10:50,1.010,1.618,1.108,1.947,1.328,0.542,0.989,0.918,��,9.6,��
2017/04/13,11:00,1.008,1.620,1.106,1.944,1.326,0.540,0.990,0.918,���k��,9.7,��
2017/04/13,11:10,1.008,1.623,1.108,1.946,1.328,0.540,0.989,0.918,��,8.5,��
2017/04/13,11:20,1.004,1.620,1.107,1.947,1.328,0.541,0.991,0.917,��,8.8,��
2017/04/13,11:30,1.009,1.616,1.105,1.949,1.330,0.540,0.991,0.919,��,7.4,��
2017/04/13,11:40,1.008,1.615,1.107,1.947,1.328,0.539,0.991,0.919,��,9.5,��
2017/04/13,11:50,1.011,1.618,1.106,1.947,1.330,0.541,0.990,0.918,��,10.7,��
2017/04/13,12:00,1.008,1.625,1.109,1.949,1.329,0.540,0.991,0.917,��,9.2,��
2017/04/13,12:10,1.012,1.622,1.107,1.949,1.333,0.542,0.992,0.917,���k��,9.5,��
2017/04/13,12:20,1.011,1.625,1.106,1.951,1.331,0.541,0.992,0.919,���k��,10.3,�L
2017/04/13,12:30,1.008,1.624,1.105,1.952,1.333,0.540,0.990,0.919,�k��,6.1,��
2017/04/13,12:40,1.008,1.626,1.106,1.951,1.332,0.542,0.991,0.918,�k��,8.3,��
2017/04/13,12:50,1.010,1.625,1.110,1.949,1.334,0.542,0.991,0.918,���k��,11.6,��
2017/04/13,13:00,1.009,1.627,1.109,1.950,1.334,0.542,0.993,0.920,���k��,12.4,��
2017/04/13,13:10,1.010,1.625,1.109,1.953,1.334,0.541,0.992,0.919,���k��,12.5,��
2017/04/13,13:20,1.010,1.629,1.105,1.951,1.336,0.542,0.993,0.919,��,8.3,��
2017/04/13,13:30,1.011,1.628,1.107,1.952,1.336,0.541,0.995,0.919,���k��,8.9,��
2017/04/13,13:40,1.011,1.629,1.110,1.949,1.335,0.540,0.991,0.920,��,10.0,��
2017/04/13,13:50,1.010,1.630,1.114,1.951,1.334,0.540,0.992,0.920,��,8.9,�L
2017/04/13,14:00,1.012,1.629,1.111,1.950,1.338,0.542,0.994,0.917,��,7.7,��
2017/04/13,14:10,1.012,1.628,1.115,1.955,1.337,0.542,0.993,0.919,��,8.4,��
2017/04/13,14:20,1.012,1.630,1.116,1.954,1.336,0.544,0.992,0.920,��,11.3,��
2017/04/13,14:30,1.012,1.631,1.118,1.955,1.339,0.543,0.992,0.919,��,6.7,��
2017/04/13,14:40,1.013,1.631,1.118,1.952,1.336,0.544,0.992,0.918,��,6.0,��
2017/04/13,14:50,1.016,1.629,1.114,1.957,1.336,0.542,0.993,0.920,��,7.8,��
2017/04/13,15:00,1.014,1.631,1.118,1.954,1.337,0.542,0.994,0.920,��,5.7,��
2017/04/13,15:10,1.013,1.630,1.116,1.955,1.337,0.542,0.992,0.920,���k��,2.9,��
2017/04/13,15:20,1.014,1.630,1.112,1.956,1.341,0.543,0.994,0.919,���쐼,4.0,��
2017/04/13,15:30,1.014,1.631,1.108,1.954,1.338,0.543,0.992,0.918,��,7.2,��
2017/04/13,15:40,1.015,1.634,1.111,1.954,1.339,0.544,0.994,0.919,���k��,8.1,��
2017/04/13,15:50,1.016,1.634,1.108,1.955,1.339,0.543,0.994,0.920,���k��,5.6,��
2017/04/13,16:00,1.015,1.633,1.111,1.953,1.338,0.544,0.995,0.918,��,4.0,��
2017/04/13,16:10,1.014,1.633,1.112,1.954,1.340,0.545,0.992,0.918,���k��,2.6,��
2017/04/13,16:20,1.016,1.633,1.112,1.954,1.338,0.545,0.993,0.922,�k�k��,2.0,��
2017/04/13,16:30,1.016,1.636,1.112,1.952,1.341,0.544,0.994,0.921,�k�k��,2.3,��
2017/04/13,16:40,1.016,1.634,1.109,1.953,1.338,0.545,0.994,0.920,��,1.9,��
2017/04/13,16:50,1.017,1.637,1.110,1.956,1.338,0.545,0.993,0.922,�k��,3.0,��
2017/04/13,17:00,1.020,1.635,1.112,1.954,1.340,0.544,0.992,0.922,�k�k��,3.5,��
2017/04/13,17:10,1.016,1.637,1.111,1.953,1.341,0.544,0.994,0.924,�k��,6.0,��
2017/04/13,17:20,1.015,1.639,1.110,1.954,1.341,0.545,0.993,0.924,���k��,6.5,��
2017/04/13,17:30,1.017,1.637,1.108,1.956,1.342,0.544,0.995,0.925,���k��,4.4,��
2017/04/13,17:40,1.019,1.638,1.112,1.954,1.339,0.544,0.990,0.923,��,6.0,��
2017/04/13,17:50,1.016,1.636,1.111,1.955,1.341,0.544,0.991,0.923,��,5.7,��
2017/04/13,18:00,1.018,1.634,1.113,1.955,1.344,0.544,0.993,0.923,��,7.7,��
2017/04/13,18:10,1.016,1.637,1.110,1.957,1.344,0.544,0.992,0.923,��,7.0,��
2017/04/13,18:20,1.014,1.633,1.115,1.955,1.345,0.544,0.991,0.924,��,6.2,��
2017/04/13,18:30,1.018,1.634,1.112,1.960,1.345,0.545,0.991,0.923,��,5.8,��
2017/04/13,18:40,1.015,1.635,1.112,1.956,1.343,0.544,0.992,0.924,��,5.1,��
2017/04/13,18:50,1.017,1.637,1.110,1.957,1.344,0.544,0.993,0.924,��,5.0,��
2017/04/13,19:00,1.015,1.635,1.111,1.959,1.345,0.543,0.993,0.921,��,3.5,��
2017/04/13,19:10,1.016,1.635,1.113,1.956,1.342,0.542,0.995,0.922,��,2.9,��
2017/04/13,19:20,1.016,1.636,1.111,1.959,1.341,0.543,0.995,0.922,��,3.5,��
2017/04/13,19:30,1.014,1.636,1.113,1.957,1.343,0.544,0.994,0.923,��,4.8,��
2017/04/13,19:40,1.016,1.636,1.111,1.958,1.341,0.542,0.995,0.922,��,5.0,��
2017/04/13,19:50,1.014,1.637,1.112,1.957,1.341,0.542,0.994,0.923,��,5.0,��
2017/04/13,20:00,1.013,1.634,1.111,1.958,1.344,0.544,0.994,0.921,��,6.5,��
2017/04/13,20:10,1.014,1.636,1.110,1.957,1.342,0.543,0.995,0.922,��,6.4,��
2017/04/13,20:20,1.011,1.635,1.112,1.961,1.343,0.543,0.993,0.921,��,6.7,��
2017/04/13,20:30,1.012,1.635,1.111,1.957,1.343,0.541,0.993,0.923,��,6.3,��
2017/04/13,20:40,1.012,1.631,1.110,1.959,1.342,0.542,0.993,0.921,��,6.5,��
2017/04/13,20:50,1.014,1.635,1.114,1.960,1.344,0.543,0.995,0.923,��,6.8,��
2017/04/13,21:00,1.011,1.636,1.110,1.957,1.343,0.542,0.994,0.922,���k��,7.1,��
2017/04/13,21:10,1.010,1.633,1.112,1.961,1.343,0.542,0.994,0.923,���k��,7.4,��
2017/04/13,21:20,1.011,1.632,1.112,1.961,1.344,0.543,0.995,0.924,���k��,6.7,��
2017/04/13,21:30,1.010,1.634,1.114,1.957,1.342,0.543,0.995,0.920,���k��,7.0,��
2017/04/13,21:40,1.014,1.634,1.111,1.960,1.343,0.543,0.995,0.922,�k��,5.2,��
2017/04/13,21:50,1.012,1.634,1.111,1.961,1.342,0.542,0.993,0.922,�k��,5.7,��
2017/04/13,22:00,1.012,1.633,1.113,1.962,1.345,0.544,0.992,0.921,�k��,6.4,��
2017/04/13,22:10,1.013,1.630,1.111,1.958,1.344,0.543,0.993,0.923,�k��,6.1,��
2017/04/13,22:20,1.012,1.633,1.111,1.959,1.344,0.543,0.993,0.922,�k��,6.1,��
2017/04/13,22:30,1.013,1.635,1.111,1.959,1.342,0.541,0.993,0.921,�k��,6.4,��
2017/04/13,22:40,1.009,1.637,1.111,1.959,1.341,0.542,0.993,0.921,���k��,4.8,��
2017/04/13,22:50,1.013,1.635,1.109,1.960,1.343,0.543,0.992,0.920,���k��,4.8,��
2017/04/13,23:00,1.010,1.637,1.112,1.956,1.341,0.541,0.993,0.921,���k��,4.7,��
2017/04/13,23:10,1.011,1.634,1.110,1.957,1.343,0.543,0.994,0.922,���k��,4.4,��
2017/04/13,23:20,1.012,1.630,1.110,1.960,1.341,0.541,0.991,0.919,���k��,2.8,��
2017/04/13,23:30,1.012,1.634,1.110,1.958,1.341,0.542,0.992,0.923,���k��,3.2,��
2017/04/13,23:40,1.012,1.635,1.112,1.957,1.341,0.540,0.992,0.921,���k��,2.3,��
2017/04/13,23:50,1.009,1.634,1.112,1.957,1.342,0.541,0.990,0.923,��,2.9,��
